Location: Burland Observatory
(39.4088°N, 105.4217°W)
Time: 14:15:16
(UTC-07:00)

Vanguard 3 - Pass Details

Date: 15 December 2019
Orbit: 508 x 3263 km, 33.3° (Epoch: 17 January)

Event Time Altitude Azimuth Distance (km) Brightness Sun altitude
Rises 07:55:32 0° 254° (WSW) 3,446 10.0 5.8°
Reaches altitude 10° 07:57:36 10° 250° (WSW) 2,738 9.6 6.1°
Maximum altitude 08:04:12 59° 172° (S) 1,604 9.1 7.1°
Drops below altitude 10° 08:16:09 10° 98° (E) 4,792 12.2 8.9°
Sets 08:20:59 0° 95° (E) 6,228 12.6 9.6°
